User: anonymous
Location: Unspecified
(0.0000°N, 0.0000°E)
Time: 17:51:56
(UTC+02:00)
Language:

NOSS 3-3 (A) - Orbit

View from above orbital plane
View from above orbital plane
View from above satellite
View from above satellite

Ground track
Ground track

The orbit data is extracted from the following two-line orbital elements,

1 28537U 05004A   14269.80794746 0.00000000  00000-0  00000-0 0    04
2 28537  63.4307 201.5918 0177000 359.3226   0.6774 13.40657668    01
Epoch (UTC): 26 September 2014 19:23:26
Eccentricity: 0.0177000
inclination: 63.4307°
perigee height: 974 km
apogee height: 1239 km
right ascension of ascending node: 201.5918°
argument of perigee: 359.3226°
revolutions per day: 13.40657668
mean anomaly at epoch: 0.6774°
orbit number at epoch: 0

The dashed part of the orbit path shows where the satellite is in the earth's shadow,  

DLR